Fargo, ND

2:47 PM CDT on March 27, 2017 (GMT -0500)
Hector International

Weather History for KFAR - September, 2011

Change the Weather History Date:

Monday, September 19, 2011

  Actual Average Record
Temperature  
Mean Temperature 60 °F 58 °F  
Max Temperature 78 °F 69 °F 96 °F (1984)
Min Temperature 41 °F 46 °F 27 °F (1896)
Degree Days  
Heating Degree Days 5 8  
Month to date heating degree days 94 103  
Since 1 July heating degree days 95 153  
Cooling Degree Days 0 1  
Month to date cooling degree days 45 37  
Year to date cooling degree days 644 542  
Growing Degree Days 10 (Base 50)    
Moisture  
Dew Point 40 °F    
Average Humidity 56    
Maximum Humidity 89    
Minimum Humidity 22    
Precipitation  
Precipitation 0.00 in 0.07 in 1.18 in (1907)
Month to date precipitation 0.06 1.75  
Year to date precipitation 22.22 17.81  
Snow  
Snow 0.00 in 0.00 in 0.00 in ()
Month to date snowfall 0.0 0.0  
Since 1 July snowfall 0.0 0.0  
Since 1 September snowfall 0.0 0.0  
Snow Depth 0.00 in    
Sea Level Pressure  
Sea Level Pressure 29.90 in    
Wind  
Wind Speed 10 mph (South)    
Max Wind Speed 22 mph    
Max Gust Speed 26 mph    
Visibility 10 miles    
Events      
T = Trace of Precipitation, MM = Missing Value Source: NWS Daily Summary

Daily Weather History Graph

Daily Weather History Graph

Search for Another Location

Airport or City:

Trip Planner

Search our weather history database for the weather conditions in past years. The results will help you decide how hot, cold, wet, or windy it might be!

Date:

Astronomy

Sep. 19, 2011 Rise Set
Actual Time 7:09 AM CDT 7:31 PM CDT
Civil Twilight 6:39 AM CDT 8:01 PM CDT
Nautical Twilight 6:03 AM CDT 8:37 PM CDT
Astronomical Twilight 5:26 AM CDT 9:14 PM CDT
Moon 11:12 PM CDT (9/19) 2:27 PM CDT (9/19)
Length of Visible Light 13h 22m
Length of Day
12h 21m
Waning Gibbous, 58% of the Moon is Illuminated
Sep 19
Waning Gibbous
Sep 20
Last Quarter
Sep 27
New
Oct 3
First Quarter
Oct 11
Full

Hourly Weather History & Observations

Time (CDT) Temp. Windchill Dew Point Humidity Pressure Visibility Wind Dir Wind Speed Gust Speed Precip Events Conditions
12:53 AM 50.0 °F - 42.1 °F 74% 29.99 in 10.0 mi Calm Calm - N/A   Clear
1:53 AM 46.9 °F - 41.0 °F 80% 29.99 in 10.0 mi Calm Calm - N/A   Clear
2:53 AM 46.0 °F 43.9 °F 39.9 °F 79% 29.99 in 10.0 mi SW 4.6 mph - N/A   Clear
3:53 AM 45.0 °F 42.6 °F 39.9 °F 82% 30.00 in 10.0 mi SW 4.6 mph - N/A   Clear
4:53 AM 43.0 °F - 39.0 °F 86% 30.00 in 10.0 mi Calm Calm - N/A   Clear
5:53 AM 44.1 °F 41.5 °F 39.0 °F 82% 30.01 in 10.0 mi SSW 4.6 mph - N/A   Clear
6:53 AM 43.0 °F 38.8 °F 37.9 °F 82% 30.01 in 10.0 mi South 6.9 mph - N/A   Clear
7:53 AM 45.0 °F 40.6 °F 41.0 °F 86% 30.01 in 10.0 mi South 8.1 mph - N/A   Clear
12:53 PM 73.9 °F - 39.0 °F 28% 29.94 in 10.0 mi SW 17.3 mph 20.7 mph N/A   Clear
1:53 PM 75.9 °F - 36.0 °F 23% 29.92 in 10.0 mi SW 16.1 mph 23.0 mph N/A   Clear
2:53 PM 75.0 °F - 36.0 °F 24% 29.89 in 10.0 mi South 16.1 mph 23.0 mph N/A   Clear
3:53 PM 77.0 °F - 36.0 °F 23% 29.87 in 10.0 mi SSW 15.0 mph - N/A   Clear
4:53 PM 77.0 °F - 37.0 °F 24% 29.84 in 10.0 mi SSW 17.3 mph - N/A   Clear
5:53 PM 75.0 °F - 39.0 °F 27% 29.82 in 10.0 mi South 12.7 mph - N/A   Clear
7:53 PM 70.0 °F - 39.9 °F 33% 29.79 in 10.0 mi SSE 10.4 mph - N/A   Clear
8:53 PM 69.1 °F - 41.0 °F 36% 29.77 in 10.0 mi SSE 13.8 mph - N/A   Clear
9:53 PM 66.9 °F - 43.0 °F 42% 29.76 in 10.0 mi SSE 12.7 mph 20.7 mph N/A   Clear
10:53 PM 66.9 °F - 42.1 °F 40% 29.74 in 10.0 mi SSE 13.8 mph 20.7 mph N/A   Clear
11:53 PM 64.9 °F - 42.1 °F 43% 29.72 in 10.0 mi SSE 12.7 mph - N/A   Clear